Big Bear Station Historical Data
Daily Summary for October 24, 2017 Units:  English    Metric   Both
Next Day »
Daily Weekly Monthly Yearly Custom
  High: Low: Average:
Temperature: 71.8 °F 43.3 °F 54.4 °F
Dew Point: 37.2 °F 22.3 °F 30.5 °F
Humidity: 73% 21% 43%
Wind Speed: 4.2mph 0.0mph 1.2mph
Wind Gust: -999.0mph - -
Wind- - SSW
Pressure: 30.48 in 23.72 in -
Precipitation: 0.00 in    
Historical Graphs
 
 
Tabular Data for October 24, 2017
Time Temperature Dew Point Pressure Wind Wind Speed Wind Gust Humidity Rainfall Rate (Hourly)
00:10 48.4 °F 30.1 °F 30.47 in SSE 2.7 mph -999.0 mph 49% 0 in
00:25 48.4 °F 30.1 °F 30.47 in South 2.2 mph -999.0 mph 49% 0 in
00:41 48.6 °F 30.8 °F 30.47 in South 2.2 mph -999.0 mph 50% 0 in
00:56 47.8 °F 30.5 °F 30.48 in Calm   -999.0 mph 51% 0 in
01:11 47.5 °F 32.1 °F 30.47 in Calm   -999.0 mph 55% 0 in
01:26 46.9 °F 30.7 °F 30.48 in Calm   -999.0 mph 53% 0 in
01:41 46.4 °F 30.2 °F 30.48 in Calm   -999.0 mph 53% 0 in
01:57 46.0 °F 31.6 °F 30.47 in SSE 1.7 mph -999.0 mph 57% 0 in
02:12 45.9 °F 32.0 °F 30.47 in Calm   -999.0 mph 58% 0 in
02:27 46.0 °F 31.6 °F 30.47 in SSE 2.7 mph -999.0 mph 57% 0 in
02:42 45.7 °F 30.9 °F 30.47 in South 1.7 mph -999.0 mph 56% 0 in
02:58 46.4 °F 31.1 °F 30.47 in Calm   -999.0 mph 55% 0 in
03:13 46.6 °F 31.7 °F 30.46 in South 3.7 mph -999.0 mph 56% 0 in
03:28 46.9 °F 31.6 °F 30.46 in Calm   -999.0 mph 55% 0 in
03:43 46.4 °F 31.5 °F 30.46 in Calm   -999.0 mph 56% 0 in
04:14 45.9 °F 32.4 °F 30.46 in Calm   -999.0 mph 59% 0 in
04:29 45.5 °F 32.0 °F 30.45 in Calm   -999.0 mph 59% 0 in
04:44 45.0 °F 31.9 °F 30.45 in Calm   -999.0 mph 60% 0 in
04:59 45.1 °F 31.6 °F 30.45 in Calm   -999.0 mph 59% 0 in
05:14 45.9 °F 31.1 °F 30.45 in South 2.2 mph -999.0 mph 56% 0 in
05:30 45.9 °F 30.6 °F 30.45 in South 2.7 mph -999.0 mph 55% 0 in
05:45 46.4 °F 31.1 °F 30.45 in South 3.2 mph -999.0 mph 55% 0 in
06:00 46.6 °F 31.3 °F 30.45 in South 2.7 mph -999.0 mph 55% 0 in
06:16 46.4 °F 31.1 °F 30.45 in SSE 1.7 mph -999.0 mph 55% 0 in
06:31 45.9 °F 31.5 °F 30.45 in Calm   -999.0 mph 57% 0 in
06:46 45.7 °F 32.2 °F 30.45 in SSE 2.7 mph -999.0 mph 59% 0 in
07:01 45.9 °F 32.4 °F 30.45 in SSE 2.7 mph -999.0 mph 59% 0 in
07:17 45.3 °F 32.2 °F 30.45 in South 1.7 mph -999.0 mph 60% 0 in
07:32 45.0 °F 32.4 °F 30.46 in Calm   -999.0 mph 61% 0 in
07:47 45.0 °F 31.9 °F 30.46 in Calm   -999.0 mph 60% 0 in
08:02 44.8 °F 32.2 °F 30.46 in Calm   -999.0 mph 61% 0 in
08:18 45.0 °F 36.9 °F 30.46 in Calm   -999.0 mph 73% 0 in
08:33 45.7 °F 36.5 °F 30.46 in Calm   -999.0 mph 70% 0 in
08:48 48.0 °F 37.2 °F 30.46 in Calm   -999.0 mph 66% 0 in
09:03 50.0 °F 36.2 °F 30.46 in SE 1.7 mph -999.0 mph 59% 0 in
09:18 52.2 °F 34.1 °F 23.80 in East 1.7 mph -999.0 mph 50% 0 in
09:49 57.9 °F 34.3 °F 23.80 in Calm   -999.0 mph 41% 0 in
10:04 59.4 °F 33.8 °F 23.80 in SW 3.2 mph -999.0 mph 38% 0 in
10:19 61.3 °F 33.4 °F 23.80 in Calm   -999.0 mph 35% 0 in
10:34 62.6 °F 33.1 °F 23.80 in NNW 3.7 mph -999.0 mph 33% 0 in
10:50 63.9 °F 33.5 °F 23.80 in WNW 2.7 mph -999.0 mph 32% 0 in
11:05 65.3 °F 33.1 °F 23.80 in NW 3.2 mph -999.0 mph 30% 0 in
11:20 66.7 °F 34.3 °F 23.79 in North 1.1 mph -999.0 mph 30% 0 in
11:35 68.2 °F 33.8 °F 23.79 in SW 2.2 mph -999.0 mph 28% 0 in
11:50 69.1 °F 32.8 °F 23.79 in SSW 2.7 mph -999.0 mph 26% 0 in
12:06 70.3 °F 32.8 °F 23.79 in North 3.7 mph -999.0 mph 25% 0 in
12:21 70.2 °F 31.7 °F 23.78 in SSE 2.7 mph -999.0 mph 24% 0 in
12:36 71.2 °F 31.5 °F 23.78 in NW 3.7 mph -999.0 mph 23% 0 in
12:51 71.1 °F 31.4 °F 23.77 in NW 3.2 mph -999.0 mph 23% 0 in
13:06 71.1 °F 31.4 °F 23.77 in SSE 2.7 mph -999.0 mph 23% 0 in
13:22 71.8 °F 32.0 °F 23.76 in ENE 2.7 mph -999.0 mph 23% 0 in
13:37 71.8 °F 32.0 °F 23.75 in NNW 2.2 mph -999.0 mph 23% 0 in
13:52 70.9 °F 30.1 °F 23.75 in North 1.1 mph -999.0 mph 22% 0 in
14:08 71.4 °F 30.6 °F 23.75 in WNW 1.7 mph -999.0 mph 22% 0 in
14:23 70.9 °F 29.0 °F 23.74 in South 4.2 mph -999.0 mph 21% 0 in
14:39 70.5 °F 29.8 °F 23.74 in Calm   -999.0 mph 22% 0 in
14:54 69.1 °F 29.7 °F 23.74 in NNE 2.2 mph -999.0 mph 23% 0 in
15:09 69.1 °F 29.7 °F 23.73 in Calm   -999.0 mph 23% 0 in
15:24 68.5 °F 29.2 °F 23.74 in WNW 1.1 mph -999.0 mph 23% 0 in
15:40 68.2 °F 30.0 °F 23.74 in Calm   -999.0 mph 24% 0 in
15:55 66.9 °F 29.9 °F 23.73 in Calm   -999.0 mph 25% 0 in
16:10 66.0 °F 30.1 °F 23.73 in West 3.7 mph -999.0 mph 26% 0 in
16:25 65.3 °F 30.5 °F 23.73 in Calm   -999.0 mph 27% 0 in
16:40 64.6 °F 29.9 °F 23.73 in Calm   -999.0 mph 27% 0 in
16:56 63.7 °F 30.0 °F 23.73 in ESE 2.7 mph -999.0 mph 28% 0 in
17:11 62.8 °F 29.2 °F 23.73 in ESE 1.7 mph -999.0 mph 28% 0 in
17:26 61.7 °F 30.7 °F 23.73 in Calm   -999.0 mph 31% 0 in
17:41 60.4 °F 31.2 °F 23.73 in Calm   -999.0 mph 33% 0 in
17:56 58.8 °F 30.5 °F 23.73 in Calm   -999.0 mph 34% 0 in
18:12 57.2 °F 30.5 °F 23.72 in Calm   -999.0 mph 36% 0 in
18:27 55.6 °F 29.1 °F 23.72 in Calm   -999.0 mph 36% 0 in
18:42 54.3 °F 28.6 °F 23.73 in Calm   -999.0 mph 37% 0 in
18:57 53.2 °F 28.2 °F 23.73 in Calm   -999.0 mph 38% 0 in
19:12 52.2 °F 28.6 °F 23.73 in Calm   -999.0 mph 40% 0 in
19:28 51.6 °F 29.2 °F 23.73 in Calm   -999.0 mph 42% 0 in
19:43 50.9 °F 30.3 °F 23.73 in Calm   -999.0 mph 45% 0 in
19:58 49.8 °F 28.8 °F 23.73 in Calm   -999.0 mph 44% 0 in
20:13 49.1 °F 28.1 °F 23.73 in Calm   -999.0 mph 44% 0 in
20:28 48.9 °F 27.9 °F 23.73 in South 2.2 mph -999.0 mph 44% 0 in
20:44 48.0 °F 27.7 °F 23.73 in SSE 1.7 mph -999.0 mph 45% 0 in
21:14 47.5 °F 27.7 °F 23.74 in South 2.2 mph -999.0 mph 46% 0 in
21:29 47.3 °F 27.0 °F 23.74 in South 2.7 mph -999.0 mph 45% 0 in
21:45 47.3 °F 26.5 °F 23.74 in South 2.2 mph -999.0 mph 44% 0 in
22:00 46.8 °F 26.0 °F 23.73 in SSE 1.7 mph -999.0 mph 44% 0 in
22:15 45.7 °F 25.0 °F 23.73 in Calm   -999.0 mph 44% 0 in
22:30 45.0 °F 24.4 °F 23.73 in Calm   -999.0 mph 44% 0 in
22:46 44.6 °F 24.0 °F 23.73 in Calm   -999.0 mph 44% 0 in
23:01 44.4 °F 23.8 °F 23.73 in Calm   -999.0 mph 44% 0 in
23:16 44.1 °F 23.0 °F 23.73 in SSE 1.1 mph -999.0 mph 43% 0 in
23:31 43.9 °F 22.8 °F 23.73 in Calm   -999.0 mph 43% 0 in
23:46 43.3 °F 22.3 °F 23.72 in Calm   -999.0 mph 43% 0 in
Big Bear CA Weather